�������l�o���
Date,Time,MP-1(��Sv/h),MP-2(��Sv/h),MP-3(��Sv/h),MP-4(��Sv/h),MP-5(��Sv/h),MP-6(��Sv/h),MP-7(��Sv/h),MP-8(��Sv/h),����,����(m/s),���J
2022/08/23,00:00,0.599,0.851,0.539,1.033,0.740,0.344,0.595,0.559,��,1.7,��
2022/08/23,00:10,0.598,0.854,0.538,1.034,0.740,0.343,0.596,0.558,��쓌,1.7,��
2022/08/23,00:20,0.599,0.854,0.538,1.034,0.741,0.342,0.595,0.559,��,3.4,��
2022/08/23,00:30,0.599,0.854,0.537,1.034,0.740,0.342,0.594,0.559,��,3.7,��
2022/08/23,00:40,0.600,0.854,0.538,1.033,0.740,0.344,0.595,0.560,��,2.6,��
2022/08/23,00:50,0.600,0.853,0.538,1.035,0.740,0.343,0.596,0.560,��,2.5,��
2022/08/23,01:00,0.599,0.853,0.538,1.033,0.741,0.343,0.594,0.559,��쓌,2.8,��
2022/08/23,01:10,0.600,0.852,0.537,1.034,0.740,0.342,0.596,0.559,��쓌,2.6,��
2022/08/23,01:20,0.600,0.854,0.540,1.034,0.739,0.342,0.596,0.558,��,2.6,��
2022/08/23,01:30,0.601,0.854,0.539,1.033,0.739,0.343,0.596,0.560,��,3.3,��
2022/08/23,01:40,0.599,0.854,0.540,1.034,0.741,0.343,0.596,0.559,��,2.6,��
2022/08/23,01:50,0.598,0.855,0.539,1.035,0.741,0.342,0.594,0.559,��,4.7,��
2022/08/23,02:00,0.601,0.856,0.537,1.035,0.740,0.342,0.596,0.560,��,4.6,��
2022/08/23,02:10,0.600,0.855,0.539,1.035,0.740,0.343,0.597,0.559,��,3.6,��
2022/08/23,02:20,0.599,0.853,0.540,1.034,0.742,0.342,0.597,0.559,��쐼,3.5,��
2022/08/23,02:30,0.600,0.856,0.539,1.035,0.741,0.344,0.596,0.560,��쐼,2.6,��
2022/08/23,02:40,0.600,0.854,0.539,1.032,0.740,0.345,0.597,0.558,��,2.8,��
2022/08/23,02:50,0.601,0.855,0.539,1.037,0.741,0.344,0.598,0.560,��,3.7,��
2022/08/23,03:00,0.602,0.853,0.539,1.035,0.741,0.344,0.597,0.559,��,3.4,��
2022/08/23,03:10,0.601,0.855,0.540,1.032,0.741,0.344,0.597,0.561,��,3.3,��
2022/08/23,03:20,0.600,0.856,0.539,1.035,0.741,0.344,0.597,0.560,��,4.3,��
2022/08/23,03:30,0.601,0.855,0.539,1.037,0.741,0.344,0.594,0.560,��,4.4,��
2022/08/23,03:40,0.599,0.854,0.539,1.034,0.742,0.343,0.596,0.559,��쐼,5.0,��
2022/08/23,03:50,0.601,0.853,0.539,1.034,0.740,0.344,0.596,0.560,��쐼,4.0,��
2022/08/23,04:00,0.599,0.855,0.540,1.036,0.742,0.344,0.597,0.562,��,4.8,��
2022/08/23,04:10,0.601,0.854,0.540,1.036,0.741,0.344,0.598,0.560,��쐼,5.1,��
2022/08/23,04:20,0.602,0.854,0.539,1.036,0.742,0.344,0.596,0.560,��쐼,5.1,��
2022/08/23,04:30,0.602,0.855,0.540,1.035,0.740,0.345,0.597,0.560,��쐼,4.6,��
2022/08/23,04:40,0.601,0.855,0.541,1.035,0.741,0.345,0.598,0.561,��쐼,4.2,��
2022/08/23,04:50,0.601,0.853,0.540,1.035,0.742,0.343,0.597,0.561,��,2.8,��
2022/08/23,05:00,0.600,0.855,0.539,1.033,0.741,0.343,0.598,0.560,��,4.0,��
2022/08/23,05:10,0.601,0.854,0.540,1.034,0.741,0.345,0.597,0.561,��쐼,6.6,��
2022/08/23,05:20,0.600,0.855,0.539,1.037,0.740,0.343,0.597,0.561,��쐼,5.6,��
2022/08/23,05:30,0.600,0.856,0.539,1.036,0.740,0.344,0.597,0.559,��,5.7,��
2022/08/23,05:40,0.601,0.853,0.539,1.035,0.738,0.343,0.597,0.561,��,6.0,��
2022/08/23,05:50,0.600,0.854,0.541,1.036,0.740,0.343,0.599,0.561,��,5.6,��
2022/08/23,06:00,0.600,0.855,0.538,1.033,0.740,0.343,0.597,0.559,��,5.0,��
2022/08/23,06:10,0.601,0.854,0.540,1.036,0.740,0.343,0.598,0.560,��쐼,4.7,��
2022/08/23,06:20,0.600,0.856,0.540,1.034,0.740,0.343,0.597,0.559,��,4.9,��
2022/08/23,06:30,0.600,0.853,0.540,1.034,0.740,0.344,0.599,0.560,��,6.0,��
2022/08/23,06:40,0.600,0.853,0.538,1.033,0.738,0.344,0.598,0.560,��,3.6,��
2022/08/23,06:50,0.600,0.854,0.538,1.032,0.737,0.343,0.599,0.559,��,0.8,��
2022/08/23,07:00,0.601,0.853,0.539,1.033,0.741,0.341,0.598,0.561,��,2.6,��
2022/08/23,07:10,0.600,0.851,0.538,1.034,0.740,0.344,0.598,0.560,��,3.3,��
2022/08/23,07:20,0.602,0.853,0.539,1.032,0.740,0.343,0.598,0.560,��,5.1,��
2022/08/23,07:30,0.602,0.853,0.539,1.035,0.738,0.342,0.598,0.559,��,5.5,��
2022/08/23,07:40,0.601,0.854,0.539,1.034,0.740,0.342,0.595,0.559,��,5.5,��
2022/08/23,07:50,0.602,0.852,0.539,1.035,0.740,0.343,0.598,0.559,��,6.1,��
2022/08/23,08:00,0.600,0.855,0.537,1.035,0.739,0.341,0.596,0.560,��,5.9,��
2022/08/23,08:10,0.601,0.855,0.539,1.033,0.740,0.341,0.597,0.560,��,6.1,��
2022/08/23,08:20,0.600,0.852,0.539,1.033,0.742,0.342,0.596,0.558,��,6.7,��
2022/08/23,08:30,0.600,0.851,0.537,1.034,0.738,0.342,0.596,0.558,��,7.3,��
2022/08/23,08:40,0.600,0.848,0.540,1.033,0.740,0.343,0.596,0.557,��,8.0,��
2022/08/23,08:50,0.599,0.852,0.540,1.034,0.737,0.343,0.596,0.557,��,8.4,��
2022/08/23,09:00,0.600,0.852,0.539,1.034,0.741,0.343,0.597,0.557,��,7.6,��
2022/08/23,09:10,0.600,0.850,0.538,1.034,0.741,0.342,0.596,0.557,��,7.0,��
2022/08/23,09:20,0.600,0.849,0.540,1.033,0.743,0.342,0.598,0.557,��,5.8,��
2022/08/23,09:30,0.599,0.851,0.539,1.034,0.740,0.343,0.597,0.558,��,5.6,��
2022/08/23,09:40,0.601,0.852,0.540,1.036,0.741,0.344,0.596,0.557,��,6.5,��
2022/08/23,09:50,0.601,0.851,0.540,1.034,0.742,0.344,0.596,0.555,��,6.7,��
2022/08/23,10:00,0.601,0.852,0.540,1.034,0.743,0.344,0.598,0.560,��,5.5,��
2022/08/23,10:10,0.601,0.849,0.538,1.035,0.742,0.344,0.598,0.558,��,5.0,��
2022/08/23,10:20,0.603,0.851,0.540,1.036,0.742,0.343,0.596,0.558,��,6.3,��
2022/08/23,10:30,0.603,0.852,0.539,1.033,0.743,0.345,0.597,0.558,��,6.4,��
2022/08/23,10:40,0.604,0.852,0.539,1.034,0.742,0.345,0.598,0.559,��,6.3,��
2022/08/23,10:50,0.603,0.850,0.539,1.035,0.742,0.345,0.596,0.558,��,6.9,��
2022/08/23,11:00,0.602,0.852,0.540,1.035,0.742,0.344,0.599,0.557,��,8.5,��
2022/08/23,11:10,0.601,0.853,0.541,1.035,0.743,0.346,0.597,0.557,��,8.3,��
2022/08/23,11:20,0.604,0.854,0.539,1.035,0.743,0.346,0.598,0.557,��,7.6,��
2022/08/23,11:30,0.603,0.855,0.540,1.035,0.743,0.345,0.597,0.557,��,7.4,��
2022/08/23,11:40,0.602,0.853,0.540,1.037,0.742,0.344,0.597,0.559,��,8.0,��
2022/08/23,11:50,0.603,0.854,0.539,1.037,0.742,0.345,0.597,0.558,��,8.4,��
2022/08/23,12:00,0.604,0.855,0.539,1.036,0.742,0.345,0.596,0.559,��,7.3,��
2022/08/23,12:10,0.604,0.853,0.540,1.037,0.743,0.344,0.597,0.560,��,6.8,��
2022/08/23,12:20,0.604,0.856,0.540,1.036,0.744,0.345,0.598,0.558,��쓌,8.4,��
2022/08/23,12:30,0.603,0.856,0.539,1.038,0.743,0.346,0.598,0.560,��,8.9,��
2022/08/23,12:40,0.604,0.856,0.540,1.038,0.742,0.345,0.599,0.560,��,7.3,��
2022/08/23,12:50,0.604,0.854,0.540,1.039,0.743,0.345,0.596,0.561,��,9.2,��
2022/08/23,13:00,0.606,0.854,0.540,1.038,0.743,0.345,0.598,0.561,��,9.7,��
2022/08/23,13:10,0.605,0.853,0.540,1.034,0.745,0.343,0.598,0.560,��,9.5,��
2022/08/23,13:20,0.606,0.853,0.539,1.038,0.743,0.343,0.599,0.559,��,10.3,��
2022/08/23,13:30,0.605,0.854,0.540,1.038,0.744,0.344,0.598,0.560,��,11.1,��
2022/08/23,13:40,0.607,0.856,0.542,1.039,0.743,0.345,0.598,0.559,��,9.9,��
2022/08/23,13:50,0.606,0.853,0.541,1.039,0.745,0.346,0.598,0.560,��,10.6,��
2022/08/23,14:00,0.605,0.855,0.541,1.038,0.745,0.344,0.598,0.560,��,10.2,��
2022/08/23,14:10,0.607,0.856,0.540,1.038,0.746,0.344,0.597,0.560,��,9.9,��
2022/08/23,14:20,0.607,0.853,0.541,1.040,0.745,0.347,0.598,0.560,��,10.3,��
2022/08/23,14:30,0.606,0.856,0.541,1.040,0.747,0.345,0.598,0.562,��,10.9,��
2022/08/23,14:40,0.606,0.857,0.540,1.040,0.745,0.344,0.598,0.561,��,10.5,��
2022/08/23,14:50,0.606,0.859,0.540,1.038,0.748,0.346,0.598,0.560,��,9.7,��
2022/08/23,15:00,0.605,0.857,0.542,1.041,0.746,0.346,0.600,0.560,��,9.4,��
2022/08/23,15:10,0.607,0.858,0.541,1.038,0.747,0.345,0.598,0.562,��,9.2,��
2022/08/23,15:20,0.606,0.858,0.542,1.040,0.748,0.345,0.598,0.561,��,6.5,��
2022/08/23,15:30,0.605,0.858,0.542,1.040,0.745,0.346,0.599,0.561,��,6.8,��
2022/08/23,15:40,0.604,0.857,0.544,1.038,0.747,0.344,0.597,0.560,��,6.8,��
2022/08/23,15:50,0.601,0.857,0.543,1.040,0.746,0.346,0.597,0.561,��,8.3,��
2022/08/23,16:00,0.601,0.857,0.541,1.040,0.747,0.345,0.599,0.562,��,8.1,��
2022/08/23,16:10,0.604,0.858,0.543,1.041,0.747,0.344,0.598,0.559,��,8.2,��
2022/08/23,16:20,0.602,0.860,0.540,1.040,0.746,0.344,0.599,0.559,��,8.6,��
2022/08/23,16:30,0.606,0.858,0.542,1.039,0.746,0.345,0.597,0.561,��,6.5,��
2022/08/23,16:40,0.604,0.859,0.541,1.041,0.749,0.344,0.597,0.561,��,6.5,��
2022/08/23,16:50,0.607,0.859,0.542,1.040,0.747,0.345,0.596,0.561,��,6.8,��
2022/08/23,17:00,0.606,0.859,0.541,1.040,0.745,0.345,0.597,0.561,��,6.4,��
2022/08/23,17:10,0.606,0.858,0.542,1.039,0.749,0.345,0.596,0.561,��,7.0,��
2022/08/23,17:20,0.606,0.859,0.541,1.037,0.746,0.345,0.596,0.560,��,8.2,��
2022/08/23,17:30,0.605,0.859,0.541,1.039,0.745,0.343,0.597,0.560,��,8.0,��
2022/08/23,17:40,0.605,0.860,0.542,1.039,0.747,0.345,0.598,0.560,��,7.2,��
2022/08/23,17:50,0.605,0.858,0.542,1.038,0.747,0.345,0.597,0.560,��,8.4,��
2022/08/23,18:00,0.602,0.857,0.541,1.038,0.746,0.345,0.597,0.559,��,7.0,��
2022/08/23,18:10,0.603,0.859,0.542,1.039,0.746,0.345,0.598,0.559,��,7.8,��
2022/08/23,18:20,0.604,0.857,0.541,1.039,0.746,0.345,0.597,0.560,��,8.6,��
2022/08/23,18:30,0.609,0.855,0.541,1.039,0.747,0.344,0.598,0.559,��,7.9,��
2022/08/23,18:40,0.608,0.858,0.541,1.040,0.746,0.344,0.597,0.561,��,8.4,��
2022/08/23,18:50,0.609,0.857,0.540,1.039,0.744,0.344,0.596,0.561,��,9.1,��
2022/08/23,19:00,0.608,0.858,0.542,1.041,0.745,0.344,0.597,0.562,��,9.1,��
2022/08/23,19:10,0.608,0.858,0.541,1.039,0.747,0.346,0.597,0.560,��,7.8,��
2022/08/23,19:20,0.609,0.860,0.541,1.041,0.746,0.345,0.598,0.561,��,6.5,��
2022/08/23,19:30,0.608,0.858,0.541,1.040,0.746,0.344,0.597,0.561,��,5.3,��
2022/08/23,19:40,0.606,0.857,0.541,1.039,0.746,0.345,0.597,0.560,��,5.0,��
2022/08/23,19:50,0.608,0.859,0.541,1.038,0.748,0.345,0.597,0.562,��,5.7,��
2022/08/23,20:00,0.608,0.858,0.541,1.039,0.746,0.345,0.597,0.561,��,6.1,��
2022/08/23,20:10,0.611,0.857,0.543,1.042,0.748,0.345,0.597,0.559,��,6.3,��
2022/08/23,20:20,0.608,0.858,0.541,1.040,0.747,0.345,0.596,0.560,��,6.9,��
2022/08/23,20:30,0.606,0.858,0.542,1.041,0.747,0.345,0.597,0.560,��,6.0,��
2022/08/23,20:40,0.609,0.858,0.541,1.039,0.748,0.345,0.597,0.562,��,5.4,��
2022/08/23,20:50,0.606,0.860,0.541,1.040,0.747,0.345,0.598,0.560,��,5.8,��
2022/08/23,21:00,0.608,0.860,0.541,1.038,0.747,0.344,0.599,0.561,��,4.8,��
2022/08/23,21:10,0.608,0.859,0.543,1.040,0.748,0.347,0.597,0.560,��,3.6,��
2022/08/23,21:20,0.607,0.859,0.541,1.040,0.747,0.344,0.598,0.561,��쐼,3.3,��
2022/08/23,21:30,0.608,0.858,0.542,1.038,0.746,0.347,0.598,0.563,��쐼,3.2,��
2022/08/23,21:40,0.607,0.858,0.542,1.042,0.747,0.345,0.598,0.562,��,3.0,��
2022/08/23,21:50,0.608,0.860,0.544,1.039,0.748,0.347,0.598,0.562,��쐼,3.8,��
2022/08/23,22:00,0.611,0.861,0.542,1.041,0.750,0.346,0.598,0.562,��,4.0,��
2022/08/23,22:10,0.607,0.860,0.541,1.039,0.747,0.345,0.598,0.561,��,3.6,��
2022/08/23,22:20,0.609,0.859,0.540,1.039,0.749,0.347,0.597,0.560,��,4.1,��
2022/08/23,22:30,0.610,0.859,0.542,1.042,0.748,0.346,0.598,0.562,��쐼,4.3,��
2022/08/23,22:40,0.609,0.858,0.542,1.041,0.747,0.346,0.598,0.562,��쐼,4.8,��
2022/08/23,22:50,0.608,0.860,0.542,1.040,0.747,0.347,0.599,0.563,��쐼,4.4,��
2022/08/23,23:00,0.608,0.861,0.543,1.042,0.747,0.347,0.598,0.561,��쐼,4.3,��
2022/08/23,23:10,0.608,0.861,0.542,1.041,0.747,0.346,0.597,0.562,��쐼,4.1,��
2022/08/23,23:20,0.609,0.858,0.543,1.040,0.747,0.347,0.599,0.562,��쐼,3.7,��
2022/08/23,23:30,0.609,0.859,0.543,1.041,0.747,0.347,0.598,0.561,�쐼,3.7,��
2022/08/23,23:40,0.610,0.858,0.543,1.041,0.747,0.345,0.597,0.564,�쐼,3.7,��
2022/08/23,23:50,0.609,0.859,0.541,1.042,0.748,0.346,0.599,0.561,���쐼,4.7,��
